[[{"header":{"parameterUnit":"m.s-1","parameterCategory":1,"la1":30.2991,"la2":30.254,"lo1":-89.0895,"lo2":-89.0444,"dy":0.0017,"dx":0.0017,"nx":28,"ny":28,"refTime":"2025-02-25T03:00:00:Z","depth":0,"parameterNumber":2,"parameterNumberName":"U-component_of_WINDS"},"data":[0,0,0,0,0,0,0,0,0,0,0,0,0,0,0,0,0,0,0,0,0,0,0,0,0,0,0,0,0,0,0,0,0,0,0,0,0,0,0,0,0,0,0,0,0,0,0,0,0,0,0,0,0,0,0,0,0,0,0.4848,0.4848,0,0.4897,0.4898,0.4898,0.4918,0.4917,0.4917,0.4917,0.4969,0.497,0.4972,0,0,0,0,0,0,0,0,0,0,0,0,0,0.4773,0.4774,0.4848,0.4848,0.4849,0.4897,0.4898,0.4898,0.4918,0.4917,0.4917,0.4917,0.4968,0.497,0.4972,0,0,0,0,0,0,0,0,0,0,0,0,0,0.4812,0.4774,0.4848,0.4864,0.4866,0.4897,0.4898,0.4899,0.4918,0.4917,0.4917,0.4917,0.4968,0.497,0.4972,0.499,0,0,0.4979,0.498,0,0,0,0,0,0,0,0,0.481,0.4815,0.4861,0.4863,0.4866,0.4901,0.489,0.4929,0.4918,0.4898,0.4917,0.4917,0.4947,0.4951,0.496,0.4993,0.4995,0.4979,0.4981,0.4982,0.4982,0,0,0,0,0,0,0,0.4807,0.4813,0.4867,0.4862,0.4865,0.487,0.4876,0.4898,0.4923,0.49,0.4901,0.4907,0.4948,0.4958,0.4962,0.4996,0.4979,0.4981,0.4983,0.4984,0.5048,0.5048,0,0,0,0,0,0,0.4801,0.481,0.4866,0.4869,0.4836,0.4872,0.4878,0.489,0.4923,0.4928,0.4907,0.4908,0.4954,0.4959,0.4964,0.4988,0.4982,0.4984,0.4985,0.5047,0.5048,0.5048,0,0,0,0,0,0,0.4799,0.4806,0.4864,0.484,0.4848,0.4873,0.4887,0.4891,0.4901,0.4928,0.4933,0.4913,0.4954,0.496,0.4984,0.499,0.4985,0.4987,0.5047,0.5047,0.5048,0.5036,0,0,0,0,0,0,0.4797,0.4805,0.4812,0.484,0.4849,0.4882,0.4887,0.4892,0.4905,0.4906,0.4935,0.4939,0.4955,0.498,0.4986,0.4993,0.4989,0.5046,0.5047,0.5048,0.5036,0.5036,0.5036,0,0,0,0,0,0.4794,0.4806,0.4812,0.4818,0.4857,0.4883,0.4888,0.4905,0.4905,0.4913,0.493,0.4939,0.4988,0.4983,0.4989,0.4997,0.5046,0.5047,0.5048,0.5036,0.5036,0.5036,0,0,0,0,0,0,0.4778,0.481,0.4817,0.4838,0.4857,0.4886,0.4895,0.4904,0.4924,0.4925,0.4945,0.4952,0.4974,0.4988,0.4981,0.5017,0.5018,0.502,0.5007,0.5007,0.5008,0.5004,0.499,0,0,0,0,0,0.4776,0.4794,0.4821,0.4837,0.4847,0.4869,0.4881,0.4893,0.4914,0.4922,0.4942,0.4962,0.4983,0.4996,0.5016,0.5039,0.5046,0.5047,0.5047,0.5047,0.5049,0.5064,0.5065,0.5051,0.5051,0.5051,0,0,0.4774,0.4794,0.4803,0.4835,0.4851,0.487,0.4876,0.4895,0.4909,0.4925,0.4949,0.4964,0.4989,0.5012,0.5023,0.5024,0.5055,0.5048,0.5048,0.505,0.5065,0.5066,0.5067,0.5051,0.5051,0.5051,0,0,0.4779,0.4795,0.4811,0.4828,0.4853,0.4868,0.4872,0.49,0.491,0.4934,0.4947,0.4965,0.5,0.5017,0.5031,0.5045,0.5054,0.5051,0.5051,0.5065,0.5066,0.5067,0.5073,0.5075,0.5052,0.5052,0.5052,0,0.4773,0.48,0.4818,0.4837,0.4851,0.4867,0.4884,0.4899,0.493,0.4939,0.494,0.4985,0.5003,0.5031,0.5035,0.5045,0.5051,0.5047,0.5065,0.5066,0.5067,0.5073,0.5075,0.5052,0.5052,0.5052,0.5052,0,0.4792,0.4811,0.4821,0.485,0.4866,0.4883,0.4905,0.4918,0.4929,0.4944,0.497,0.4992,0.5018,0.5025,0.5036,0.5056,0.5056,0.506,0.5062,0.5068,0.5074,0.5076,0.5051,0.5051,0.5051,0.5051,0,0,0.4787,0.4827,0.483,0.4845,0.4874,0.489,0.4909,0.4934,0.4946,0.4967,0.4984,0.5014,0.5019,0.5034,0.5047,0.5059,0.5071,0.5063,0.5064,0.5064,0.5096,0.5093,0.5095,0.5077,0.5077,0.5078,0.5094,0,0.4796,0.483,0.4848,0.4875,0.4894,0.491,0.4927,0.4948,0.4963,0.4982,0.5,0.5021,0.5025,0.5035,0.5047,0.5066,0.5077,0.5066,0.5094,0.5095,0.5088,0.5098,0.5094,0.5108,0.5097,0.5097,0.5097,0,0.4811,0.4833,0.4861,0.4891,0.4899,0.4914,0.4939,0.4957,0.4981,0.4992,0.501,0.5023,0.5045,0.5045,0.5077,0.5068,0.5082,0.5093,0.5094,0.5097,0.5096,0.5102,0.5113,0.5115,0.5101,0.5101,0.51,0,0.4805,0.4841,0.4864,0.4875,0.491,0.492,0.4935,0.4959,0.4974,0.4996,0.5007,0.5031,0.5045,0.5065,0.5085,0.5083,0.5115,0.5116,0.5125,0.5125,0.5131,0.5131,0.5145,0.5139,0.5139,0.5139,0.5139,0,0.4814,0.4831,0.4862,0.4875,0.4896,0.4917,0.4937,0.4953,0.4975,0.4993,0.5009,0.5026,0.5051,0.5071,0.5087,0.5112,0.5118,0.5128,0.5132,0.5127,0.5125,0.5135,0.5135,0.514,0.5139,0.5139,0.5139,0,0.4811,0.4831,0.4857,0.4888,0.4896,0.491,0.4937,0.4952,0.4969,0.4992,0.4998,0.5025,0.505,0.5072,0.5105,0.5116,0.5142,0.5146,0.5133,0.5136,0.5144,0.5143,0.5165,0.517,0.516,0.516,0.516,0,0.4815,0.4829,0.4861,0.4875,0.4889,0.491,0.4925,0.4947,0.4963,0.4993,0.5004,0.5031,0.5053,0.5092,0.5115,0.5141,0.5147,0.5153,0.5151,0.5146,0.5148,0.5147,0.515,0.5153,0.5153,0.5153,0.5153,0,0.482,0.4831,0.4852,0.4877,0.4895,0.4916,0.4937,0.4947,0.4974,0.4991,0.5016,0.5034,0.5068,0.5095,0.5123,0.514,0.5152,0.5154,0.5158,0.5152,0.5144,0.515,0.5134,0.5153,0.5153,0.5153,0.5153,0.5153,0.4821,0.4835,0.4861,0.4884,0.4903,0.4923,0.4939,0.4958,0.498,0.5009,0.5021,0.5048,0.5075,0.5115,0.5131,0.5154,0.5155,0.516,0.5162,0.5163,0.5162,0.5141,0.5159,0.5159,0.5159,0.5159,0.5159,0,0.4828,0.4846,0.4868,0.4897,0.4917,0.4926,0.4951,0.4966,0.4989,0.5013,0.5035,0.5065,0.5092,0.5117,0.5145,0.5158,0.5164,0.5165,0.5164,0.5168,0.5159,0.5153,0.516,0.516,0.516,0.516,0.516,0.516,0.4834,0.4858,0.4872,0.4906,0.4924,0.495,0.4963,0.4983,0.5002,0.5035,0.5057,0.5074,0.5099,0.5129,0.5154,0.5161,0.5171,0.517,0.5179,0.5169,0.5169,0.5168,0.5163,0.5172,0.5172,0.5187,0.5187,0.5187]},{"header":{"parameterUnit":"m.s-1","parameterCategory":1,"la1":30.2991,"la2":30.254,"lo1":-89.0895,"lo2":-89.0444,"dy":0.0017,"dx":0.0017,"nx":28,"ny":28,"refTime":"2025-02-25T03:00:00:Z","depth":0,"parameterNumber":3,"parameterNumberName":"V-component_of_WINDS"},"data":[0,0,0,0,0,0,0,0,0,0,0,0,0,0,0,0,0,0,0,0,0,0,0,0,0,0,0,0,0,0,0,0,0,0,0,0,0,0,0,0,0,0,0,0,0,0,0,0,0,0,0,0,0,0,0,0,0,0,-2.8058,-2.8058,0,-2.8136,-2.8137,-2.8138,-2.815,-2.8149,-2.8149,-2.8148,-2.8224,-2.8227,-2.823,0,0,0,0,0,0,0,0,0,0,0,0,0,-2.7914,-2.7917,-2.8057,-2.8058,-2.8059,-2.8136,-2.8137,-2.8138,-2.815,-2.8149,-2.8148,-2.8148,-2.8223,-2.8227,-2.823,0,0,0,0,0,0,0,0,0,0,0,0,0,-2.7983,-2.7918,-2.8057,-2.8075,-2.8077,-2.8136,-2.8137,-2.8139,-2.815,-2.8149,-2.8148,-2.8147,-2.8222,-2.8226,-2.823,-2.8276,0,0,-2.8243,-2.8244,0,0,0,0,0,0,0,0,-2.7979,-2.7988,-2.8071,-2.8074,-2.8076,-2.8132,-2.8115,-2.8185,-2.8151,-2.8122,-2.8148,-2.8147,-2.8194,-2.8201,-2.8218,-2.828,-2.8283,-2.8243,-2.8245,-2.8247,-2.8248,0,0,0,0,0,0,0,-2.7974,-2.7985,-2.8089,-2.8072,-2.8075,-2.8078,-2.8086,-2.8128,-2.8163,-2.8125,-2.8126,-2.8135,-2.8195,-2.8214,-2.8219,-2.8284,-2.8243,-2.8246,-2.8249,-2.825,-2.839,-2.8391,0,0,0,0,0,0,-2.7967,-2.7981,-2.8086,-2.8091,-2.8024,-2.8081,-2.8091,-2.8115,-2.8163,-2.8169,-2.8136,-2.8135,-2.8207,-2.8215,-2.8222,-2.828,-2.8247,-2.8251,-2.8253,-2.8388,-2.839,-2.8391,0,0,0,0,0,0,-2.7964,-2.7976,-2.8083,-2.8036,-2.805,-2.8085,-2.8112,-2.8117,-2.8136,-2.8171,-2.8177,-2.8148,-2.8207,-2.8216,-2.8263,-2.8283,-2.8253,-2.8256,-2.8387,-2.8389,-2.839,-2.8395,0,0,0,0,0,0,-2.796,-2.7975,-2.7993,-2.8037,-2.8053,-2.8124,-2.8113,-2.812,-2.8143,-2.8143,-2.8184,-2.819,-2.8207,-2.8257,-2.8267,-2.8288,-2.8259,-2.8385,-2.8388,-2.839,-2.8394,-2.8397,-2.84,0,0,0,0,0,-2.7954,-2.799,-2.7994,-2.8007,-2.8076,-2.8125,-2.8134,-2.8153,-2.8145,-2.8163,-2.8186,-2.8189,-2.8279,-2.8262,-2.8273,-2.8295,-2.8384,-2.8387,-2.839,-2.8392,-2.8397,-2.84,0,0,0,0,0,0,-2.7946,-2.7996,-2.8001,-2.8052,-2.8084,-2.8127,-2.815,-2.8157,-2.8191,-2.8189,-2.8211,-2.822,-2.8266,-2.8285,-2.8265,-2.8343,-2.8331,-2.8336,-2.8329,-2.8333,-2.8336,-2.8331,-2.8263,0,0,0,0,0,-2.795,-2.7987,-2.8028,-2.8069,-2.8085,-2.8115,-2.8137,-2.8149,-2.8183,-2.8196,-2.8222,-2.8254,-2.829,-2.8312,-2.8347,-2.8397,-2.8406,-2.8418,-2.8421,-2.8423,-2.8428,-2.8457,-2.8462,-2.8401,-2.8401,-2.8401,0,0,-2.7959,-2.7991,-2.8012,-2.8068,-2.8094,-2.8131,-2.8126,-2.8164,-2.8191,-2.8201,-2.8248,-2.8269,-2.8305,-2.8354,-2.8377,-2.8372,-2.8447,-2.8427,-2.8429,-2.8432,-2.846,-2.8466,-2.8471,-2.8403,-2.8402,-2.8402,0,0,-2.7994,-2.8021,-2.8059,-2.8087,-2.8128,-2.8148,-2.8157,-2.8199,-2.8214,-2.8261,-2.827,-2.8302,-2.8363,-2.8389,-2.841,-2.8458,-2.8461,-2.8468,-2.8485,-2.8513,-2.8518,-2.8523,-2.854,-2.8546,-2.8472,-2.8472,-2.8472,0,-2.7999,-2.8055,-2.8078,-2.8117,-2.8141,-2.8154,-2.8193,-2.8217,-2.8267,-2.8283,-2.8277,-2.8355,-2.838,-2.8436,-2.8448,-2.8465,-2.8476,-2.8463,-2.8516,-2.8521,-2.8525,-2.8542,-2.8548,-2.8473,-2.8473,-2.8473,-2.8473,0,-2.806,-2.8099,-2.8125,-2.8175,-2.8202,-2.824,-2.8268,-2.8293,-2.8304,-2.8324,-2.8373,-2.8405,-2.8446,-2.8461,-2.847,-2.8518,-2.8514,-2.8512,-2.85,-2.8531,-2.8547,-2.8554,-2.8474,-2.8473,-2.8473,-2.8473,0,0,-2.809,-2.8154,-2.8163,-2.8186,-2.8234,-2.8264,-2.8303,-2.8346,-2.8367,-2.8401,-2.8435,-2.8487,-2.8486,-2.851,-2.8523,-2.8548,-2.8584,-2.8542,-2.8544,-2.8549,-2.864,-2.8642,-2.8649,-2.8588,-2.8589,-2.859,-2.8637,0,-2.813,-2.8202,-2.8225,-2.8284,-2.8321,-2.8335,-2.8369,-2.8402,-2.8422,-2.8456,-2.8478,-2.8515,-2.8511,-2.8526,-2.8551,-2.8574,-2.8603,-2.8571,-2.8618,-2.862,-2.8609,-2.8657,-2.8659,-2.8702,-2.8644,-2.8645,-2.8645,0,-2.8187,-2.8225,-2.8289,-2.8333,-2.8349,-2.838,-2.8422,-2.8454,-2.8491,-2.8505,-2.8533,-2.8545,-2.8586,-2.8572,-2.863,-2.8608,-2.8628,-2.8643,-2.8645,-2.865,-2.8634,-2.8664,-2.8716,-2.8722,-2.8656,-2.8655,-2.8654,0,-2.8203,-2.8269,-2.8317,-2.8337,-2.8389,-2.8411,-2.8434,-2.847,-2.8495,-2.8532,-2.8548,-2.8588,-2.861,-2.8641,-2.8663,-2.8651,-2.8718,-2.8706,-2.873,-2.873,-2.8743,-2.8742,-2.88,-2.8756,-2.8756,-2.8756,-2.8756,0,-2.8246,-2.8284,-2.8325,-2.8354,-2.8398,-2.8424,-2.8466,-2.8489,-2.8522,-2.8556,-2.857,-2.8601,-2.8628,-2.8663,-2.868,-2.8725,-2.8735,-2.8746,-2.875,-2.8745,-2.8744,-2.8759,-2.8756,-2.8758,-2.8757,-2.8757,-2.8757,0,-2.827,-2.8299,-2.8352,-2.8399,-2.8412,-2.8442,-2.8482,-2.8511,-2.8533,-2.8575,-2.8587,-2.8621,-2.8663,-2.8688,-2.874,-2.8752,-2.8802,-2.8804,-2.879,-2.8792,-2.8814,-2.8812,-2.8884,-2.8895,-2.8844,-2.8844,-2.8845,0,-2.8296,-2.8326,-2.8378,-2.8402,-2.8426,-2.8464,-2.8491,-2.8517,-2.8544,-2.859,-2.8613,-2.8656,-2.8692,-2.8758,-2.8787,-2.8827,-2.8831,-2.8854,-2.8837,-2.8831,-2.8832,-2.883,-2.8834,-2.8856,-2.8856,-2.8857,-2.8857,0,-2.8338,-2.8351,-2.839,-2.8434,-2.8466,-2.8501,-2.8536,-2.8555,-2.8588,-2.8617,-2.8661,-2.8689,-2.8744,-2.8786,-2.883,-2.8852,-2.886,-2.8862,-2.887,-2.8865,-2.8855,-2.8861,-2.8797,-2.886,-2.886,-2.886,-2.8859,-2.8859,-2.8364,-2.8393,-2.8434,-2.8477,-2.8507,-2.854,-2.857,-2.8597,-2.8634,-2.8682,-2.8695,-2.8741,-2.8779,-2.8839,-2.8862,-2.8898,-2.8895,-2.8906,-2.8909,-2.8911,-2.8912,-2.885,-2.8906,-2.8906,-2.8906,-2.8906,-2.8906,0,-2.8407,-2.8435,-2.8474,-2.8525,-2.8559,-2.8566,-2.8605,-2.8633,-2.8674,-2.8709,-2.8745,-2.8796,-2.8838,-2.8872,-2.8915,-2.8937,-2.8942,-2.8948,-2.8946,-2.8951,-2.8912,-2.8902,-2.8943,-2.8943,-2.8943,-2.8943,-2.8943,-2.8943,-2.8434,-2.8483,-2.8502,-2.8566,-2.8593,-2.864,-2.8663,-2.8693,-2.8722,-2.8779,-2.8815,-2.8837,-2.8872,-2.8918,-2.8957,-2.8966,-2.8981,-2.8986,-2.8995,-2.8958,-2.8954,-2.895,-2.894,-2.8989,-2.8989,-2.9031,-2.9032,-2.9032]}]]